Location: Nianha
(10.8000°N, 4.6333°W)
Time: 03:05:39
(UTC+00:00)

Daily predictions for brighter satellites

Satellite Brightness Start Highest point End
(mag) Time Altitude Azimuth Time Altitude Azimuth Time Altitude Azimuth
Ariane H10-3 4.4 03:05:41 31° SE 03:05:41 31° SE 03:16:36 10° E
Hubble Space Telescope 4.1 03:40:09 11° ESE 03:40:09 11° ESE 03:40:15 10° ESE
Milstar 3 4.1 03:46:54 36° N 03:46:55 36° N 03:53:33 10° ENE
Milstar 3 Cent rocket 3.7 04:03:21 43° NNW 04:05:14 48° NNE 04:11:27 10° E
CZ-2C R/B 3.1 04:08:17 45° ENE 04:08:50 47° E 04:13:15 10° S
CZ-3B R/B 2.0 04:09:29 79° NE 04:09:29 79° NE 04:13:54 10° ENE
FALCON 9 R/B 3.4 04:10:35 29° S 04:12:39 43° SE 04:24:16 10° ENE
DELTA 2 R/B (1) 3.5 04:20:59 77° NNE 04:21:08 77° NE 04:26:41 10° SE
SJ 16-02 2.7 04:17:07 10° S 04:21:13 38° E 04:25:17 10° NNE
STARLINK-32 4.5 04:23:04 49° ESE 04:23:04 49° ESE 04:26:52 10° NE
STARLINK-40 4.3 04:24:40 51° ESE 04:24:40 51° ESE 04:28:31 10° NE
Lacrosse 4 Rocket 3.9 04:21:57 12° NNE 04:24:36 19° ENE 04:27:41 10° ESE
STARLINK-44 4.2 04:26:18 55° ESE 04:26:18 55° ESE 04:30:13 10° NE
STARLINK-36 4.1 04:27:55 58° ESE 04:27:55 58° ESE 04:31:55 10° NE
Meteor 2-10 Rocket 3.9 04:28:55 15° N 04:33:35 70° E 04:39:18 10° SSE
STARLINK-35 3.7 04:34:19 71° SE 04:34:27 72° SE 04:38:33 10° NE
ATLAS CENTAUR R/B 4.1 04:31:37 10° SSE 04:35:28 24° ESE 04:39:24 10° ENE
Cosmos 1340 Rocket 3.7 04:37:11 39° SSW 04:37:11 39° SSW 04:39:48 10° S
STARLINK-51 3.6 04:35:57 75° SSE 04:36:07 77° SE 04:40:15 10° NE
Palapa 6 Rocket 4.4 04:34:00 45° WNW 04:36:54 90° NNE 04:44:49 10° ESE
Meteor 1-31 Rocket 2.7 04:37:31 74° NE 04:37:47 81° ESE 04:41:41 10° S
STARLINK-30 3.6 04:37:33 76° S 04:37:48 81° ESE 04:41:55 10° NE
STARLINK-33 3.5 04:39:10 77° SSW 04:39:27 85° SE 04:43:35 10° NE
STARLINK-50 3.5 04:40:48 75° SSW 04:41:08 89° ESE 04:45:15 10° NE
PAYLOAD A 4.3 04:42:50 48° W 04:42:50 48° W 04:47:52 10° SSW
STARLINK-56 3.4 04:44:00 70° SW 04:44:26 83° NW 04:48:33 10° NNE
Cosmos 1484 Rocket 4.4 04:41:24 10° NNE 04:45:06 37° E 04:48:48 10° SSE
Starlink (trailer) 3.4 04:45:40 66° WSW 04:46:10 78° NW 04:50:17 10° NNE
STARLINK-38 3.4 04:47:15 64° WSW 04:47:45 74° NW 04:51:52 10° NNE
STARLINK-65 3.4 04:48:50 60° WSW 04:49:24 70° NW 04:53:30 10° NNE
Okean O Rocket 4.4 04:48:18 10° NE 04:51:27 20° E 04:54:37 10° SSE
Cosmos 1697 Rocket 4.5 04:49:17 10° NNE 04:54:08 30° ENE 04:58:59 10° SE
STARLINK-69 3.6 04:53:49 51° W 04:54:25 58° NW 04:58:29 10° NNE
STARLINK-66 3.6 04:55:15 47° W 04:56:03 57° NW 05:00:06 10° NNE
STARLINK-41 3.6 04:56:51 44° W 04:57:42 53° NW 05:01:44 10° NNE
Cosmos 990 Rocket 3.9 04:52:43 10° SSW 04:57:44 56° WNW 05:02:46 10° N
STARLINK-26 3.9 04:58:54 42° NW 04:58:54 42° NW 05:02:40 10° NNE
STARLINK-64 3.7 04:58:36 43° W 04:59:22 50° NW 05:03:21 10° NNE
ALOS 4.0 04:56:46 10° NE 05:00:58 34° E 05:05:12 10° SSE
STARLINK-70 3.8 05:00:06 40° W 05:01:02 48° NW 05:05:00 10° NNE
SWIFT 2.5 05:00:05 29° WSW 05:02:11 72° SSE 05:06:26 10° ENE
STARLINK-68 3.9 05:02:05 39° W 05:02:46 42° NW 05:06:41 10° NNE
STARLINK-58 3.9 05:03:17 36° W 05:04:15 43° NW 05:08:11 10° NNE
Cosmos 1455 3.9 05:06:09 18° SW 05:06:09 18° SW 05:07:34 10° SSW
STARLINK-62 4.0 05:05:16 34° W 05:06:05 38° NW 05:09:57 10° NNE
STARLINK-63 4.0 05:06:33 32° W 05:07:40 39° NW 05:11:32 10° NNE
STARLINK 3.9 05:07:18 26° WSW 05:09:07 43° NW 05:13:02 10° NNE
STARLINK-72 4.1 05:09:25 27° W 05:10:56 37° NW 05:14:46 10° NNE
STARLINK-59 4.3 05:12:59 26° W 05:14:19 32° NW 05:18:01 10° N
CZ-4B DEB 4.3 05:08:59 10° NNE 05:14:27 79° ESE 05:19:57 10° S
Cosmos 773 Rocket 4.3 05:11:34 15° NW 05:15:34 44° W 05:20:34 10° S
STARLINK-57 4.4 05:14:32 24° W 05:15:58 31° NW 05:19:39 10° N
PSLV R/B 3.8 05:12:06 10° N 05:15:59 59° WNW 05:19:56 10° SSW
NOSS 3-1 (A) 4.4 05:08:22 13° NW 05:16:01 55° WSW 05:24:36 10° S
Hubble Space Telescope 2.2 05:15:30 18° WSW 05:17:18 24° SSW 05:20:42 10° SSE
STARLINK-53 4.5 05:17:19 22° W 05:18:49 28° NW 05:22:24 10° N
Cosmos 1076 Rocket 4.4 05:17:45 10° SW 05:21:27 27° W 05:25:10 10° NNW
ASTRO E2 4.2 05:19:11 13° NNW 05:22:03 28° NNE 05:25:30 10° E
Cosmos 2058 3.4 05:18:26 10° SSW 05:22:19 37° W 05:26:13 10° NNW
Cosmos 1898 Rocket 4.4 05:18:43 10° SW 05:22:59 26° WNW 05:27:17 10° NNW
Helios 1A Rocket 3.4 05:21:51 10° NNE 05:25:52 64° E 05:29:51 10° S
ASTEX 1 3.5 05:24:36 10° S 05:29:24 56° W 05:34:14 10° NNW
Cosmos 1538 Rocket 4.4 05:25:59 10° NNW 05:31:01 42° W 05:36:01 10° S
Cosmos 1656 3.8 05:25:56 10° NNW 05:31:08 49° WSW 05:36:24 10° S
Cosmos 1408 Rocket 4.4 05:29:03 10° S 05:33:13 52° E 05:37:23 10° NNE
Cosmos 2150 Rocket 4.2 05:29:49 10° S 05:35:16 84° ESE 05:40:43 10° NNE
Okean 3 Rocket 3.8 05:31:45 10° SSW 05:36:10 52° W 05:40:34 10° N
Cosmos 1937 Rocket 4.3 05:32:40 10° SW 05:37:01 27° WNW 05:41:21 10° NNW
ISS -0.9 05:39:30 10° NNE 05:41:00 12° NE 05:42:30 10° ENE
Cosmos 2173 Rocket 4.1 05:36:40 10° SSW 05:42:55 62° W 05:49:07 10° N
Cosmos 1766 Rocket 3.6 05:40:22 10° SSW 05:44:36 55° W 05:48:49 10° N
USA 267 3.7 05:39:50 10° NNE 05:45:51 40° NW 05:51:51 10° WSW
ARIANE 5 DEB (SYLDA) 4.1 05:43:53 10° WSW 05:48:12 36° S 05:54:55 10° ESE
COSMO-SKYMED 1 2.9 05:46:40 10° SSE 05:50:59 70° ENE 05:55:17 10° N
Radarsat Rocket 4.3 05:45:46 10° NNE 05:51:38 75° ESE 05:58:01 10° S
Cosmos 2221 3.7 05:49:58 10° NW 05:53:24 23° W 05:56:49 10° SW
Centaur D AC-29 1.7 05:51:29 10° WNW 05:57:18 45° SSW 06:00:24 10° SE
Cosmos 1980 Rocket 2.7 05:51:58 10° N 05:57:36 67° ENE 06:03:11 10° SSE
